Location: Unspecified
(0.0000°N, 0.0000°E)
Time: 06:36:08
(UTC+00:00)

Explorer 7 - Pass Details

Date: 28 November 2019
Orbit: 485 x 680 km, 50.3° (Epoch: 11 December)

Event Time Altitude Azimuth Distance (km) Brightness Sun altitude
Exits shadow 05:00:00 - 342° (NNW) 2,158 9.5 -11.1°
Reaches altitude 10° 05:01:11 10° 348° (NNW) 1,718 9.0 -10.8°
Maximum altitude 05:04:40 32° 52° (NE) 862 8.1 -10.0°
Drops below altitude 10° 05:08:05 10° 117° (ESE) 1,670 10.9 -9.2°
Sets 05:10:22 0° 127° (SE) 2,543 12.0 -8.7°
